Hourly Data Report for September 21, 2017

All times are specified in Local Standard Time (LST). Add 1 hour to adjust for Daylight Saving Time where and when it is observed.

GJOA HAVEN A
NUNAVUT

68°38'08.000" N
95°51'01.000" W
46.90 m
2302337
71597
YHK

Download Data

Hourly Data (September 2017)
Hourly Data Report for September 21, 2017
Temp Definition
°C
Dew Point Temp Definition
°C
Rel Hum Definition
%
Wind Dir Definition
10's deg

Wind Spd Definition
km/h
Visibility Definition
km
Stn Press Definition
kPa
Hmdx Definition


Wind Chill Definition


Weather Definition


TIME
00:00 Legend Double Dagger 1.6 -0.7 85 7 22 16.1 102.13     LegendNANA
01:00 Legend Double Dagger 1.5 -0.9 84 7 24 16.1 102.12     LegendNANA
02:00 Legend Double Dagger 1.1 -0.2 91 7 28 16.1 102.10     LegendNANA
03:00 Legend Double Dagger 1.1 -0.2 91 7 26 16.1 102.07     LegendNANA
04:00 Legend Double Dagger 1.0 -0.2 92 7 30 16.1 102.04     LegendNANA
05:00 Legend Double Dagger 0.4 -0.5 93 7 32 16.1 102.03     LegendNANA
06:00 Legend Double Dagger -0.1 -0.8 95 7 30 16.1 102.03   -7 LegendNANA
07:00 Legend Double Dagger -0.6 -1.2 96 7 28 16.1 102.04   -7 LegendNANA
08:00 Legend Double Dagger -0.5 -1.4 94 7 30 16.1 102.04   -7 LegendNANA
09:00 Legend Double Dagger -0.4 -1.3 94 8 24 16.1 102.03   -6 LegendNANA
10:00 Legend Double Dagger -0.8 -1.7 94 5 22 16.1 102.01   -7 LegendNANA
11:00
12:00 Legend Double Dagger -0.6 -1.9 91 4 24 LegendMM 101.96   -7 LegendNANA
13:00
14:00 Legend Double Dagger LegendMM LegendMM LegendMM LegendMM LegendMM LegendMM LegendMM     LegendNANA
15:00 Legend Double Dagger -0.8 -2.5 89 5 21 16.1 101.94   -6 LegendNANA
16:00 Legend Double Dagger -0.7 -2.5 88 4 18 16.1 101.95   -6 LegendNANA
17:00 Legend Double Dagger -1.4 -2.8 90 2 17 16.1 101.95   -7 LegendNANA
18:00 Legend Double Dagger -1.8 -3.0 91 1 18 16.1 101.94   -7 LegendNANA
19:00 Legend Double Dagger -2.2 -2.8 96 36 17 16.1 101.94   -8 Snow
20:00 Legend Double Dagger -2.8 -3.4 96 1 13 14.5 101.93   -7 Snow
21:00 Legend Double Dagger -2.0 -2.7 95 1 15 16.1 101.90   -7 LegendNANA
22:00 Legend Double Dagger -2.6 -2.9 98 1 15 16.1 101.90   -8 LegendNANA
23:00 Legend Double Dagger -3.0 -3.3 98 34 15 6.4 101.90   -8 Snow

Notes on Data Quality.

Legend

  • E = Estimated
  • M = Missing
  • NA = Not Available
  • ‡ = Partner data that is not subject to review by the National Climate Archives
Date modified: